Cody, WY

12:05 AM MDT on March 24, 2017 (GMT -0600)
Yellowstone Regional

Weather History for KCOD - July, 2015

Change the Weather History Date:

Saturday, July 25, 2015

  Actual Average Record
Temperature  
Mean Temperature 74 °F -  
Max Temperature 84 °F 83 °F 101 °F (1933)
Min Temperature 64 °F 56 °F 38 °F (1918)
Cooling Degree Days 9    
Growing Degree Days 24 (Base 50)    
Moisture  
Dew Point 39 °F    
Average Humidity 28    
Maximum Humidity 46    
Minimum Humidity 15    
Precipitation  
Precipitation 0.00 in - - ()
Sea Level Pressure  
Sea Level Pressure 30.08 in    
Wind  
Wind Speed 8 mph (WSW)    
Max Wind Speed 15 mph    
Max Gust Speed 22 mph    
Visibility 10 miles    
Events      
Averages and records for this station are not official NWS values.
T = Trace of Precipitation, MM = Missing Value Source: NWS Daily Summary

Daily Weather History Graph

Daily Weather History Graph

Search for Another Location

Airport or City:

Trip Planner

Search our weather history database for the weather conditions in past years. The results will help you decide how hot, cold, wet, or windy it might be!

Date:

Astronomy

Jul. 25, 2015 Rise Set
Actual Time 5:55 AM MDT 8:49 PM MDT
Civil Twilight 5:20 AM MDT 9:23 PM MDT
Nautical Twilight 4:37 AM MDT 10:07 PM MDT
Astronomical Twilight 3:45 AM MDT 10:58 PM MDT
Moon 3:25 PM MDT (7/25) 1:05 AM MDT (7/25)
Length of Visible Light 16h 02m
Length of Day
14h 54m
Waxing Gibbous, 65% of the Moon is Illuminated
Jul 25
Waxing Gibbous
Jul 31
Full
Aug 6
Last Quarter
Aug 14
New
Aug 22
First Quarter

Hourly Weather History & Observations

Time (MDT) Temp. Dew Point Humidity Pressure Visibility Wind Dir Wind Speed Gust Speed Precip Events Conditions
12:15 AM 71.6 °F 39.2 °F 31% 30.12 in 10.0 mi West 11.5 mph 21.9 mph N/A   Scattered Clouds
12:35 AM 71.6 °F 39.2 °F 31% 30.12 in 10.0 mi West 9.2 mph - N/A   Partly Cloudy
12:55 AM 69.8 °F 39.2 °F 33% 30.12 in 10.0 mi WSW 8.1 mph - N/A   Partly Cloudy
1:15 AM 71.6 °F 39.2 °F 31% 30.12 in 10.0 mi WSW 9.2 mph 18.4 mph N/A   Clear
1:35 AM 69.8 °F 39.2 °F 33% 30.12 in 10.0 mi West 15.0 mph 18.4 mph N/A   Clear
1:55 AM 69.8 °F 39.2 °F 33% 30.12 in 10.0 mi WNW 6.9 mph - N/A   Clear
2:15 AM 68.0 °F 41.0 °F 37% 30.11 in 10.0 mi NNW 4.6 mph - N/A   Clear
2:35 AM 68.0 °F 42.8 °F 40% 30.11 in 10.0 mi NE 3.5 mph - N/A   Clear
2:55 AM 68.0 °F 39.2 °F 35% 30.10 in 10.0 mi West 10.4 mph 16.1 mph N/A   Clear
3:15 AM 69.8 °F 39.2 °F 33% 30.09 in 10.0 mi WNW 6.9 mph - N/A   Scattered Clouds
3:35 AM 69.8 °F 39.2 °F 33% 30.09 in 10.0 mi WSW 11.5 mph 18.4 mph N/A   Mostly Cloudy
3:55 AM 69.8 °F 39.2 °F 33% 30.09 in 10.0 mi WSW 10.4 mph 18.4 mph N/A   Mostly Cloudy
4:15 AM 68.0 °F 41.0 °F 37% 30.09 in 10.0 mi SW 11.5 mph 18.4 mph N/A   Scattered Clouds
4:35 AM 68.0 °F 41.0 °F 37% 30.09 in 10.0 mi SW 12.7 mph 17.3 mph N/A   Clear
4:55 AM 68.0 °F 41.0 °F 37% 30.09 in 10.0 mi WSW 9.2 mph 16.1 mph N/A   Clear
5:15 AM 66.2 °F 41.0 °F 40% 30.10 in 10.0 mi WSW 10.4 mph - N/A   Scattered Clouds
5:35 AM 68.0 °F 39.2 °F 35% 30.10 in 10.0 mi WNW 4.6 mph - N/A   Partly Cloudy
5:55 AM 66.2 °F 41.0 °F 40% 30.10 in 10.0 mi West 5.8 mph 16.1 mph N/A   Clear
6:15 AM 64.4 °F 42.8 °F 45% 30.12 in 10.0 mi NNE 5.8 mph - N/A   Clear
6:35 AM 64.4 °F 42.8 °F 45% 30.12 in 10.0 mi Calm Calm - N/A   Clear
6:55 AM 66.2 °F 42.8 °F 43% 30.12 in 10.0 mi Calm Calm - N/A   Clear
7:15 AM 66.2 °F 44.6 °F 46% 30.13 in 10.0 mi Calm Calm - N/A   Clear
7:35 AM 66.2 °F 42.8 °F 43% 30.13 in 10.0 mi SSE 5.8 mph - N/A   Clear
7:55 AM 69.8 °F 44.6 °F 40% 30.14 in 10.0 mi Calm Calm - N/A   Clear
8:15 AM 71.6 °F 42.8 °F 35% 30.14 in 10.0 mi Calm Calm - N/A   Clear
8:35 AM 71.6 °F 41.0 °F 33% 30.14 in 10.0 mi South 5.8 mph - N/A   Partly Cloudy
8:55 AM 73.4 °F 41.0 °F 31% 30.15 in 10.0 mi WSW 8.1 mph - N/A   Partly Cloudy
9:15 AM 73.4 °F 41.0 °F 31% 30.14 in 10.0 mi WNW 4.6 mph - N/A   Clear
9:35 AM 75.2 °F 39.2 °F 27% 30.14 in 10.0 mi SSW 3.5 mph - N/A   Clear
9:55 AM 75.2 °F 44.6 °F 34% 30.14 in 10.0 mi Calm Calm - N/A   Clear
10:15 AM 75.2 °F 42.8 °F 31% 30.13 in 10.0 mi ENE 6.9 mph - N/A   Clear
10:35 AM 75.2 °F 46.4 °F 36% 30.13 in 10.0 mi ENE 6.9 mph - N/A   Clear
10:55 AM 77.0 °F 44.6 °F 32% 30.13 in 10.0 mi NNE 10.4 mph - N/A   Clear
11:15 AM 75.2 °F 46.4 °F 36% 30.13 in 10.0 mi ENE 8.1 mph - N/A   Clear
11:35 AM 77.0 °F 42.8 °F 29% 30.12 in 10.0 mi North 8.1 mph - N/A   Partly Cloudy
11:55 AM 77.0 °F 41.0 °F 28% 30.11 in 10.0 mi Calm Calm - N/A   Partly Cloudy
12:15 PM 78.8 °F 46.4 °F 32% 30.10 in 10.0 mi NE 5.8 mph - N/A   Scattered Clouds
12:35 PM 78.8 °F 44.6 °F 30% 30.09 in 10.0 mi North 6.9 mph - N/A   Scattered Clouds
12:55 PM 78.8 °F 41.0 °F 26% 30.09 in 10.0 mi NW 5.8 mph - N/A   Mostly Cloudy
1:15 PM 78.8 °F 46.4 °F 32% 30.08 in 10.0 mi NE 3.5 mph - N/A   Mostly Cloudy
1:35 PM 80.6 °F 39.2 °F 23% 30.07 in 10.0 mi South 5.8 mph - N/A   Scattered Clouds
1:55 PM 82.4 °F 39.2 °F 21% 30.06 in 10.0 mi SSW 5.8 mph - N/A   Partly Cloudy
2:15 PM 82.4 °F 35.6 °F 19% 30.06 in 10.0 mi SW 8.1 mph - N/A   Partly Cloudy
2:35 PM 84.2 °F 35.6 °F 18% 30.05 in 10.0 mi South 6.9 mph - N/A   Mostly Cloudy
2:55 PM 84.2 °F 37.4 °F 19% 30.05 in 10.0 mi WSW 10.4 mph 17.3 mph N/A   Partly Cloudy
3:15 PM 82.4 °F 33.8 °F 17% 30.05 in 10.0 mi WSW 10.4 mph - N/A   Partly Cloudy
3:35 PM 84.2 °F 33.8 °F 16% 30.04 in 10.0 mi West 10.4 mph 20.7 mph N/A   Clear
3:55 PM 82.4 °F 35.6 °F 19% 30.04 in 10.0 mi West 11.5 mph 20.7 mph N/A   Clear
4:15 PM 82.4 °F 33.8 °F 17% 30.04 in 10.0 mi West 9.2 mph - N/A   Clear
4:35 PM 84.2 °F 35.6 °F 18% 30.03 in 10.0 mi West 15.0 mph 18.4 mph N/A   Clear
4:55 PM 82.4 °F 33.8 °F 17% 30.03 in 10.0 mi West 12.7 mph 19.6 mph N/A   Clear
5:15 PM 84.2 °F 33.8 °F 16% 30.03 in 10.0 mi WSW 5.8 mph 17.3 mph N/A   Clear
5:35 PM 82.4 °F 33.8 °F 17% 30.02 in 10.0 mi Calm Calm - N/A   Clear
5:55 PM 82.4 °F 32.0 °F 16% 30.02 in 10.0 mi West 6.9 mph 16.1 mph N/A   Clear
6:15 PM 84.2 °F 33.8 °F 16% 30.02 in 10.0 mi SSW 10.4 mph - N/A   Clear
6:35 PM 84.2 °F 32.0 °F 15% 30.02 in 10.0 mi SW 8.1 mph - N/A   Clear
6:55 PM 84.2 °F 33.8 °F 16% 30.01 in 10.0 mi SW 10.4 mph - N/A   Clear
7:15 PM 82.4 °F 33.8 °F 17% 30.01 in 10.0 mi SW 5.8 mph - N/A   Clear
7:35 PM 82.4 °F 33.8 °F 17% 30.01 in 10.0 mi West 5.8 mph - N/A   Clear
7:55 PM 80.6 °F 33.8 °F 18% 30.01 in 10.0 mi West 6.9 mph - N/A   Clear
8:15 PM 80.6 °F 33.8 °F 18% 30.02 in 10.0 mi West 5.8 mph - N/A   Clear
8:35 PM 78.8 °F 33.8 °F 20% 30.02 in 10.0 mi West 4.6 mph - N/A   Clear
8:55 PM 78.8 °F 33.8 °F 20% 30.02 in 10.0 mi West 4.6 mph - N/A   Clear
9:15 PM 75.2 °F 35.6 °F 24% 30.02 in 10.0 mi West 5.8 mph - N/A   Partly Cloudy
9:35 PM 73.4 °F 35.6 °F 25% 30.03 in 10.0 mi SW 5.8 mph - N/A   Partly Cloudy
9:55 PM 73.4 °F 37.4 °F 27% 30.04 in 10.0 mi West 3.5 mph - N/A   Clear
10:15 PM 71.6 °F 37.4 °F 29% 30.04 in 10.0 mi West 5.8 mph - N/A   Clear
10:35 PM 71.6 °F 37.4 °F 29% 30.04 in 10.0 mi WSW 5.8 mph - N/A   Clear
10:55 PM 71.6 °F 37.4 °F 29% 30.04 in 10.0 mi WSW 5.8 mph - N/A   Clear
11:15 PM 71.6 °F 37.4 °F 29% 30.04 in 10.0 mi WSW 6.9 mph - N/A   Clear
11:35 PM 71.6 °F 37.4 °F 29% 30.04 in 10.0 mi SW 8.1 mph - N/A   Clear
11:55 PM 71.6 °F 35.6 °F 27% 30.03 in 10.0 mi WSW 5.8 mph - N/A   Clear